This is the latest recevied weather packets stored in our database for station/object KJ5HMU-13. If no packets are shown the sender has not sent any weather packets the latest 1 day(s).
| Time | Temp. | Humidity | Pressure | Rain* | Wind** | Luminosity | Snow |
|---|---|---|---|---|---|---|---|
| 1778064638 | -3.33° C | 91% | 1019.2 hPa | 0 mm | - | 0 W/m² | - |
| 1778064034 | -3.33° C | 93% | 1019.1 hPa | 0 mm | - | 0 W/m² | - |
| 1778063731 | -3.33° C | 92% | 1019.1 hPa | 0 mm | - | 0 W/m² | - |
| 1778061915 | -3.33° C | 95% | 1019.1 hPa | 0 mm | - | 0 W/m² | - |
| 1778061613 | -3.33° C | 95% | 1019.4 hPa | 0 mm | - | 0 W/m² | - |
| 1778060403 | -3.33° C | 95% | 1019.9 hPa | 0 mm | - | 0 W/m² | - |
| 1778060101 | -2.78° C | 96% | 1019.5 hPa | 0 mm | - | 0 W/m² | - |
| 1778059798 | -2.78° C | 96% | 1019.9 hPa | 0 mm | - | 0 W/m² | - |
| 1778059496 | -3.33° C | 96% | 1019.8 hPa | 0 mm | - | 0 W/m² | - |
| 1778059192 | -3.33° C | 95% | 1019.6 hPa | 0 mm | - | 0 W/m² | - |
| 1778058587 | -2.78° C | 94% | 1019.6 hPa | 0 mm | - | 0 W/m² | - |
| 1778057981 | -1.67° C | 95% | 1019.2 hPa | 0 mm | - | 0 W/m² | - |
| 1778057678 | -1.11° C | 95% | 1019.2 hPa | 0 mm | - | 0 W/m² | - |
| 1778057072 | -1.11° C | 95% | 1019 hPa | 0 mm | - | 0 W/m² | - |
| 1778056465 | -1.11° C | 95% | 1018.9 hPa | 0 mm | - | 0 W/m² | - |
| 1778056162 | -1.11° C | 95% | 1019.4 hPa | 0 mm | - | 0 W/m² | - |
| 1778055254 | -0.56° C | 95% | 1019.4 hPa | 0 mm | - | 0 W/m² | - |
| 1778054647 | -0.56° C | 95% | 1019.1 hPa | 0 mm | - | 0 W/m² | - |
| 1778054345 | -0.56° C | 96% | 1018.7 hPa | 0 mm | - | 0 W/m² | - |
| 1778054042 | -0.56° C | 96% | 1019.5 hPa | 0 mm | - | 0 W/m² | - |
| 1778053739 | 0° C | 97% | 1019.1 hPa | 0 mm | - | 0 W/m² | - |
| 1778053436 | 0° C | 97% | 1019 hPa | 0 mm | - | 0 W/m² | - |
| 1778052831 | 0° C | 97% | 1019.2 hPa | 0 mm | - | 0 W/m² | - |
| 1778051923 | 0° C | 97% | 1019.4 hPa | 0 mm | - | 0 W/m² | - |
| 1778051621 | 0° C | 97% | 1019.5 hPa | 0 mm | - | 0 W/m² | - |
* Rain latest hour (hover to see other rain measurements)
** Current wind speed in m/s (hover to see current wind gust speed)